Year,Month,Day,Hour,Minute,Value (Times are PST for temperature in C)
2017,09,26,00,31,13.40
2017,09,26,00,32,13.40
2017,09,26,00,33,13.30
2017,09,26,00,34,13.30
2017,09,26,01,31,13.30
2017,09,26,01,32,13.30
2017,09,26,01,33,13.30
2017,09,26,01,34,13.30
2017,09,26,02,31,13.00
2017,09,26,02,32,13.00
2017,09,26,02,33,13.00
2017,09,26,02,34,13.00
2017,09,26,03,31,12.90
2017,09,26,03,32,12.90
2017,09,26,03,33,12.90
2017,09,26,03,34,12.90
2017,09,26,04,31,12.80
2017,09,26,04,32,12.80
2017,09,26,04,33,12.80
2017,09,26,04,34,12.80
2017,09,26,05,31,12.60
2017,09,26,05,32,12.60
2017,09,26,05,33,12.60
2017,09,26,05,34,12.60
2017,09,26,06,31,12.60
2017,09,26,06,32,12.60
2017,09,26,06,33,12.60
2017,09,26,06,34,12.60
2017,09,26,07,31,13.10
2017,09,26,07,32,13.10
2017,09,26,07,33,13.10
2017,09,26,07,34,13.10
2017,09,26,08,31,13.10
2017,09,26,08,32,13.10
2017,09,26,08,33,13.10
2017,09,26,08,34,13.10
2017,09,26,09,31,13.70
2017,09,26,09,32,13.70
2017,09,26,09,33,13.70
2017,09,26,09,34,13.70
2017,09,26,10,31,14.20
2017,09,26,10,32,14.20
2017,09,26,10,33,14.20
2017,09,26,10,34,14.20
2017,09,26,11,31,15.20
2017,09,26,11,32,15.20
2017,09,26,11,33,15.20
2017,09,26,11,34,15.30
2017,09,26,12,31,16.80
2017,09,26,12,32,16.80
2017,09,26,12,33,16.70
2017,09,26,12,34,16.80
2017,09,26,13,31,17.30
2017,09,26,13,32,17.30
2017,09,26,13,33,17.30
2017,09,26,13,34,17.30
2017,09,26,14,31,17.30
2017,09,26,14,32,17.30
2017,09,26,14,33,17.30
2017,09,26,14,34,17.30
2017,09,26,15,31,17.40
2017,09,26,15,32,17.40
2017,09,26,15,33,17.40
2017,09,26,15,34,17.40
2017,09,26,16,31,17.10
2017,09,26,16,32,17.10
2017,09,26,16,33,17.10
2017,09,26,16,34,17.10
2017,09,26,17,31,17.40
2017,09,26,17,32,17.40
2017,09,26,17,33,17.40
2017,09,26,17,34,17.40
2017,09,26,18,31,16.70
2017,09,26,18,32,16.70
2017,09,26,18,33,16.70
2017,09,26,18,34,16.70
2017,09,26,19,31,15.80
2017,09,26,19,32,15.80
2017,09,26,19,33,15.80
2017,09,26,19,34,15.80
2017,09,26,20,31,15.30
2017,09,26,20,32,15.20
2017,09,26,20,33,15.20
2017,09,26,20,34,15.20
2017,09,26,21,31,14.40
2017,09,26,21,32,14.40
2017,09,26,21,33,14.40
2017,09,26,21,34,14.40
2017,09,26,22,31,13.90
2017,09,26,22,32,13.90
2017,09,26,22,33,13.90
2017,09,26,22,34,13.90
2017,09,26,23,31,13.20
2017,09,26,23,32,13.20
2017,09,26,23,33,13.20
2017,09,26,23,34,13.20
